Total_Precipitation_Accumulation
0.03 0.03 0.03 0.02 0.01 0.01 0.01 0.01 0.00 0.00 0.00 0.00 0.00 0.01 0.01 0.01 0.00 0.00 0.00 0.00 0.00 0.00 0.00 0.00 0.00 0.00 0.00 0.00 0.00 0.00 0.00 0.00 0.00 0.03 0.11 0.16 0.28 0.33 0.20 0.06 0.11 0.26 0.18 0.28 0.46
0.03 0.04 0.04 0.03 0.03 0.02 0.01 0.01 0.00 0.01 0.01 0.00 0.00 0.01 0.01 0.02 0.00 0.00 0.00 0.00 0.00 0.00 0.00 0.00 0.00 0.00 0.00 0.00 0.00 0.00 0.00 0.00 0.00 0.06 0.33 0.29 0.15 0.03 0.01 0.01 0.20 0.53 0.53 0.32 0.33
0.04 0.04 0.05 0.04 0.02 0.02 0.01 0.01 0.01 0.01 0.01 0.00 0.00 0.01 0.02 0.01 0.00 0.00 0.00 0.00 0.00 0.00 0.00 0.00 0.00 0.00 0.00 0.00 0.00 0.00 0.00 0.00 0.00 0.00 0.00 0.01 0.01 0.00 0.00 0.19 0.52 0.67 0.50 0.42 0.34
0.03 0.03 0.03 0.03 0.02 0.01 0.01 0.01 0.00 0.01 0.01 0.01 0.00 0.01 0.01 0.00 0.00 0.00 0.00 0.00 0.00 0.00 0.00 0.00 0.00 0.00 0.00 0.00 0.00 0.00 0.00 0.00 0.00 0.00 0.00 0.00 0.00 0.01 0.04 0.27 0.22 0.26 0.69 0.62 0.49
0.06 0.05 0.04 0.03 0.02 0.02 0.02 0.01 0.00 0.01 0.01 0.00 0.01 0.02 0.01 0.00 0.00 0.00 0.00 0.00 0.00 0.00 0.00 0.00 0.00 0.00 0.00 0.00 0.00 0.00 0.00 0.00 0.00 0.00 0.00 0.00 0.01 0.02 0.08 0.45 0.51 0.27 0.32 0.45 0.50
0.15 0.11 0.08 0.07 0.06 0.04 0.02 0.00 0.01 0.01 0.01 0.01 0.01 0.03 0.01 0.00 0.00 0.00 0.00 0.00 0.00 0.00 0.00 0.00 0.00 0.00 0.00 0.00 0.00 0.00 0.00 0.00 0.00 0.00 0.00 0.00 0.03 0.09 0.18 0.77 0.30 0.15 0.08 0.17 0.26
0.21 0.18 0.18 0.16 0.14 0.11 0.05 0.01 0.00 0.01 0.01 0.01 0.02 0.04 0.01 0.00 0.00 0.00 0.00 0.00 0.00 0.00 0.00 0.00 0.00 0.00 0.00 0.00 0.00 0.00 0.00 0.00 0.00 0.00 0.00 0.01 0.03 0.13 0.21 0.39 0.13 0.05 0.05 0.06 0.11
0.40 0.37 0.31 0.26 0.17 0.09 0.04 0.01 0.00 0.01 0.01 0.01 0.02 0.03 0.00 0.00 0.00 0.00 0.00 0.00 0.00 0.00 0.00 0.00 0.00 0.00 0.00 0.00 0.00 0.00 0.00 0.00 0.00 0.00 0.00 0.02 0.17 0.29 0.13 0.09 0.07 0.04 0.01 0.02 0.03
0.35 0.29 0.25 0.18 0.17 0.16 0.11 0.03 0.00 0.01 0.01 0.01 0.01 0.02 0.00 0.00 0.00 0.00 0.00 0.00 0.00 0.00 0.00 0.00 0.00 0.00 0.00 0.00 0.00 0.00 0.00 0.00 0.00 0.00 0.00 0.01 0.03 0.15 0.07 0.09 0.12 0.10 0.04 0.00 0.02
0.19 0.18 0.15 0.13 0.14 0.16 0.11 0.07 0.02 0.00 0.00 0.00 0.02 0.01 0.00 0.00 0.00 0.00 0.00 0.01 0.02 0.00 0.00 0.00 0.00 0.00 0.00 0.00 0.00 0.00 0.00 0.00 0.00 0.00 0.00 0.00 0.00 0.09 0.05 0.03 0.09 0.15 0.10 0.02 0.01
0.14 0.11 0.12 0.13 0.15 0.16 0.09 0.06 0.07 0.09 0.04 0.01 0.01 0.01 0.00 0.00 0.00 0.00 0.00 0.00 0.01 0.01 0.01 0.03 0.00 0.00 0.01 0.00 0.00 0.00 0.00 0.00 0.00 0.00 0.00 0.00 0.00 0.00 0.01 0.11 0.10 0.14 0.07 0.01 0.00
0.15 0.14 0.13 0.11 0.15 0.14 0.04 0.05 0.03 0.11 0.16 0.03 0.01 0.00 0.00 0.00 0.00 0.00 0.00 0.01 0.02 0.04 0.05 0.04 0.04 0.00 0.00 0.00 0.00 0.02 0.02 0.00 0.00 0.00 0.00 0.00 0.00 0.00 0.00 0.00 0.02 0.03 0.03 0.02 0.00
0.16 0.16 0.17 0.15 0.14 0.07 0.01 0.01 0.01 0.07 0.22 0.03 0.00 0.00 0.00 0.01 0.00 0.00 0.00 0.00 0.05 0.11 0.06 0.09 0.03 0.00 0.00 0.00 0.01 0.01 0.01 0.00 0.00 0.00 0.02 0.02 0.01 0.00 0.00 0.01 0.01 0.01 0.01 0.01 0.01
0.21 0.19 0.22 0.26 0.13 0.04 0.03 0.01 0.03 0.21 0.42 0.04 0.02 0.03 0.04 0.07 0.01 0.00 0.00 0.00 0.07 0.09 0.09 0.21 0.04 0.02 0.03 0.02 0.01 0.06 0.00 0.00 0.02 0.08 0.10 0.05 0.06 0.00 0.00 0.00 0.00 0.00 0.00 0.01 0.03
0.30 0.24 0.27 0.27 0.15 0.10 0.04 0.01 0.13 0.37 0.50 0.05 0.11 0.05 0.07 0.05 0.01 0.06 0.00 0.00 0.02 0.07 0.20 0.33 0.21 0.24 0.22 0.05 0.02 0.07 0.00 0.01 0.01 0.02 0.08 0.07 0.12 0.03 0.01 0.01 0.00 0.00 0.01 0.00 0.01
0.36 0.31 0.36 0.30 0.14 0.03 0.01 0.09 0.30 0.79 0.36 0.03 0.14 0.10 0.14 0.09 0.01 0.02 0.01 0.00 0.00 0.05 0.06 0.10 0.03 0.06 0.05 0.00 0.01 0.02 0.02 0.03 0.05 0.09 0.22 0.04 0.10 0.05 0.03 0.11 0.09 0.14 0.08 0.04 0.04
0.34 0.35 0.37 0.18 0.15 0.11 0.18 0.50 0.91 0.60 0.05 0.03 0.08 0.25 0.16 0.20 0.22 0.05 0.02 0.00 0.00 0.03 0.07 0.07 0.06 0.05 0.03 0.12 0.05 0.05 0.04 0.14 0.31 0.24 0.12 0.06 0.07 0.03 0.18 0.25 0.35 0.32 0.30 0.30 0.11
0.41 0.40 0.36 0.19 0.11 0.15 0.42 1.09 0.88 0.27 0.02 0.00 0.11 0.23 0.24 0.17 0.24 0.05 0.02 0.02 0.02 0.02 0.04 0.05 0.19 0.07 0.05 0.27 0.12 0.05 0.05 0.10 0.36 0.22 0.19 0.12 0.11 0.12 0.40 0.31 0.65 0.33 0.59 0.42 0.19
0.72 0.59 0.51 0.21 0.13 0.37 0.94 1.04 0.38 0.19 0.01 0.00 0.01 0.10 0.11 0.11 0.45 0.54 0.44 0.13 0.10 0.06 0.20 0.14 0.18 0.08 0.04 0.05 0.07 0.08 0.08 0.05 0.20 0.23 0.32 0.12 0.14 0.28 0.28 0.15 0.61 0.41 0.52 0.77 0.28
0.78 0.87 0.53 0.20 0.44 0.98 1.51 0.68 0.07 0.03 0.01 0.01 0.01 0.02 0.12 0.08 0.23 0.85 0.41 0.17 0.04 0.02 0.10 0.19 0.23 0.09 0.12 0.08 0.05 0.04 0.04 0.10 0.23 0.53 0.42 0.18 0.23 0.43 0.33 0.21 0.44 0.93 0.64 0.84 0.48
1.54 1.64 0.66 0.36 1.38 2.28 1.52 0.34 0.03 0.00 0.02 0.04 0.05 0.07 0.06 0.07 0.14 0.37 0.44 0.40 0.09 0.05 0.06 0.13 0.28 0.17 0.18 0.26 0.06 0.04 0.07 0.10 0.21 0.24 0.41 0.56 0.66 0.87 0.62 0.43 0.48 0.63 1.16 0.73 0.76
2.58 1.84 0.87 0.78 2.10 1.71 0.56 0.12 0.06 0.02 0.02 0.06 0.05 0.08 0.19 0.21 0.11 0.11 0.22 0.34 0.23 0.25 0.10 0.09 0.20 0.17 0.04 0.10 0.04 0.05 0.08 0.11 0.35 0.33 0.43 0.82 1.61 1.11 0.73 0.60 0.58 0.68 1.16 1.22 0.89
3.33 2.14 2.02 1.32 1.18 0.48 0.19 0.17 0.11 0.07 0.03 0.06 0.08 0.06 0.13 0.18 0.14 0.17 0.15 0.13 0.17 0.20 0.25 0.16 0.37 0.55 0.35 0.17 0.11 0.13 0.06 0.13 0.27 0.27 0.47 1.00 1.63 1.57 1.06 0.81 0.78 1.08 0.96 0.86 1.00
3.90 3.37 4.00 3.14 0.88 0.24 0.25 0.29 0.20 0.08 0.07 0.04 0.04 0.05 0.06 0.07 0.06 0.14 0.19 0.16 0.06 0.10 0.15 0.18 0.24 0.51 0.79 0.61 0.52 0.28 0.08 0.07 0.15 0.47 0.66 0.87 1.73 1.50 1.88 1.63 1.33 1.06 1.17 1.04 0.98
5.24 2.24 1.22 2.02 1.35 0.29 0.22 0.27 0.23 0.20 0.08 0.08 0.11 0.08 0.06 0.08 0.06 0.07 0.15 0.18 0.13 0.12 0.21 0.28 0.25 0.17 0.13 0.17 0.66 0.50 0.18 0.15 0.25 0.18 0.40 0.70 0.67 1.02 1.77 1.97 1.82 1.76 1.25 1.10 0.98
5.01 1.33 0.47 0.24 0.31 0.62 0.52 0.22 0.16 0.13 0.18 0.14 0.13 0.11 0.08 0.12 0.12 0.11 0.12 0.25 0.20 0.16 0.25 0.42 0.41 0.16 0.09 0.09 0.41 0.43 0.15 0.11 0.14 0.17 0.32 0.48 0.45 1.04 0.82 0.56 0.53 0.64 0.95 0.82 0.95
3.81 0.61 0.55 0.49 0.45 0.71 0.48 0.17 0.11 0.10 0.15 0.08 0.08 0.11 0.16 0.10 0.14 0.14 0.14 0.14 0.15 0.14 0.23 0.34 0.53 0.58 0.36 0.16 0.61 0.97 0.75 0.50 0.36 0.45 0.31 0.42 0.62 0.79 0.43 0.19 0.13 0.10 0.17 0.35 0.43